Printer-friendly version

IAU Minor Planet Center

Minor Planet Center

(354) Eleonora

Orbital Elements

The following orbital elements are taken from MPC 31001:
  (354) Eleonora
Epoch 2002 May 6.0 TT = JDT 2452400.5                   Goffin
M 107.95830              (2000.0)            P               Q
n   0.21037620     Peri.    6.63556     -0.83638242     -0.51015144
a   2.7998728      Node   140.51849     +0.48730573     -0.85951813
e   0.1124522      Incl.   18.38341     +0.25099319     -0.03121037
P   4.68           H    6.44          G   0.37           U   0
From 1700 observations at 75 oppositions, 1893-1997, mean residual 0".55.
An explanation of the orbital elements is available.

These orbital elements are also available in forms suitable for loading into a number of popular planetarium-type software programs.


Ephemeris

The following ephemeris is at intervals of five days. A daily ephemeris covering the same time interval is also available.

Date    TT    R. A. (2000) Decl.     Delta      r     Elong.  Phase     V
 
2002 04 06    18 51.15   -05 43.4    2.674    2.896    92.5    20.2    11.6
2002 04 11    18 54.28   -05 23.4    2.613    2.901    96.4    20.1    11.6
2002 04 16    18 56.92   -05 03.5    2.553    2.907   100.4    19.9    11.5
2002 04 21    18 59.05   -04 44.3    2.493    2.912   104.5    19.5    11.5
2002 04 26    19 00.65   -04 25.9    2.435    2.917   108.6    19.1    11.4
2002 05 01    19 01.71   -04 08.7    2.379    2.922   112.9    18.5    11.4
2002 05 06    19 02.21   -03 53.1    2.325    2.927   117.2    17.8    11.3
2002 05 11    19 02.12   -03 39.3    2.273    2.932   121.7    17.0    11.2
2002 05 16    19 01.45   -03 27.9    2.224    2.937   126.2    16.1    11.2
2002 05 21    19 00.20   -03 19.2    2.179    2.942   130.8    15.1    11.1
2002 05 26    18 58.38   -03 13.6    2.138    2.947   135.5    14.0    11.0
2002 05 31    18 56.03   -03 11.3    2.101    2.952   140.1    12.7    11.0
2002 06 05    18 53.19   -03 12.7    2.070    2.957   144.7    11.4    10.9
2002 06 10    18 49.89   -03 18.0    2.043    2.961   149.2    10.1    10.8
2002 06 15    18 46.21   -03 27.4    2.023    2.966   153.4     8.8    10.8
2002 06 20    18 42.25   -03 40.9    2.009    2.971   157.0     7.7    10.7
2002 06 25    18 38.09   -03 58.6    2.001    2.975   159.7     6.8    10.7
2002 06 30    18 33.83   -04 20.1    1.999    2.980   161.1     6.3    10.7
2002 07 05    18 29.58   -04 45.3    2.005    2.984   160.9     6.4    10.7
2002 07 10    18 25.43   -05 13.8    2.017    2.988   159.0     7.0    10.7
2002 07 15    18 21.50   -05 45.3    2.036    2.993   155.9     8.0    10.8
2002 07 20    18 17.89   -06 19.2    2.061    2.997   152.1     9.1    10.8
2002 07 25    18 14.66   -06 55.0    2.093    3.001   147.8    10.4    10.9
2002 07 30    18 11.88   -07 32.1    2.130    3.005   143.3    11.7    11.0
2002 08 04    18 09.60   -08 10.3    2.173    3.009   138.6    12.9    11.1
2002 08 09    18 07.86   -08 48.9    2.220    3.013   133.9    14.0    11.2
2002 08 14    18 06.70   -09 27.6    2.273    3.017   129.2    15.1    11.2
2002 08 19    18 06.11   -10 06.0    2.329    3.021   124.6    16.0    11.3
2002 08 24    18 06.10   -10 43.7    2.389    3.025   120.1    16.8    11.4
2002 08 29    18 06.66   -11 20.6    2.452    3.029   115.6    17.5    11.5
2002 09 03    18 07.77   -11 56.3    2.518    3.032   111.2    18.1    11.6
2002 09 08    18 09.42   -12 30.8    2.586    3.036   106.9    18.5    11.6
2002 09 13    18 11.59   -13 03.8    2.656    3.039   102.6    18.8    11.7
2002 09 18    18 14.25   -13 35.1    2.727    3.043    98.5    19.1    11.8
2002 09 23    18 17.37   -14 04.8    2.799    3.046    94.4    19.2    11.8

Back to Bright Minor Planets

Astronomical Headlines Index


Valid HTML 4.01!